"Pseudo-MPEC" for ZTF02V6

Created 2019 Feb 20 14:18:08 UT using Find_Orb

Click here for an explanation of pseudo-MPECs

 
 Astrometry: 
     ZTF02V6  C2019 02 08.24417 10 54 45.65 -09 06 34.8    ~292I 20.2 rUNEOCPI41
     ZTF02V6  C2019 02 08.25304 10 54 45.95 -09 06 34.3    ~292I 20.0 rUNEOCPI41
     ZTF02V6  C2019 02 08.27972 10 54 46.79 -09 06 33.6    ~292I 20.3 rUNEOCPI41
     ZTF02V6  C2019 02 08.30981 10 54 47.73 -09 06 32.8    ~292I 20.3 rUNEOCPI41

Station data:
(I41) Palomar Mountain--ZTF  (N33.357340 W116.859780)  US/California. 1.2-m
   f/2.44 Oschin Schmidt + CCD.

Orbital elements:  ZTF02V6
   Perihelion 2019 Jan 10.091807 +/- 42.2 TT =  2:12:12 (JD 2458493.591807)
Epoch 2019 Feb  8.0 TT = JDT 2458522.5   Earth MOID: 0.2524   Ma: 0.0411
M   7.95313379 +/- 26               (J2000 ecliptic)          AutoNEOCP
n   0.27511694 +/- 0.303            Peri.  263.74646 +/- 120
a   2.34130406 +/- 1.72             Node   216.81726 +/- 32
e   0.4766297 +/- 0.25              Incl.    3.88248 +/- 7
P   3.58                   H 21.3   G  0.15   U 11.9  SR
q 1.22536891 +/- 0.469    Q 3.45723922 +/- 50.4
From 4 observations 2019 Feb. 8 (94.5 min); mean residual 0".10
Residuals in arcseconds: 
190208 I41  .02-  .15-    190208 I41  .13-  .09+    
190208 I41  .10+  .13+    190208 I41  .06+  .07-    

Ephemerides (geocentric):
Date (UTC) HH   RA              Dec         delta   r     elong  mag " sig PA
---- -- -- --  -------------   -----------  ------ ------ -----  --- ---- ---
2019 02 20 14  10 59 45.417   -08 08 53.37  .33207 1.3020 157.7 20.4  60d 174
2019 02 20 15  10 59 45.931   -08 08 33.08  .33215 1.3022 157.7 20.4  60d 174
2019 02 20 16  10 59 46.443   -08 08 12.74  .33223 1.3023 157.8 20.4  60d 174
2019 02 20 17  10 59 46.951   -08 07 52.35  .33231 1.3025 157.8 20.4  60d 174
2019 02 20 18  10 59 47.457   -08 07 31.90  .33239 1.3026 157.8 20.4  60d 174
2019 02 20 19  10 59 47.961   -08 07 11.41  .33247 1.3028 157.9 20.4  60d 174
2019 02 20 20  10 59 48.461   -08 06 50.87  .33255 1.3029 157.9 20.4  60d 174
2019 02 20 21  10 59 48.959   -08 06 30.29  .33263 1.3031 157.9 20.4  60d 174
2019 02 20 22  10 59 49.455   -08 06 09.65  .33271 1.3032 158.0 20.4  60d 174
2019 02 20 23  10 59 49.948   -08 05 48.96  .33279 1.3034 158.0 20.4  60d 174
2019 02 21 00  10 59 50.438   -08 05 28.23  .33287 1.3035 158.1 20.4  60d 174
2019 02 21 01  10 59 50.925   -08 05 07.45  .33295 1.3037 158.1 20.4  60d 174
2019 02 21 02  10 59 51.410   -08 04 46.62  .33303 1.3038 158.1 20.4  60d 174
2019 02 21 03  10 59 51.893   -08 04 25.74  .33311 1.3040 158.2 20.4  60d 174
2019 02 21 04  10 59 52.372   -08 04 04.81  .33320 1.3041 158.2 20.4  60d 174
2019 02 21 05  10 59 52.850   -08 03 43.84  .33328 1.3042 158.2 20.4  60d 174
2019 02 21 06  10 59 53.324   -08 03 22.81  .33336 1.3044 158.3 20.4  60d 174
2019 02 21 07  10 59 53.796   -08 03 01.74  .33344 1.3045 158.3 20.4  60d 174
2019 02 21 08  10 59 54.266   -08 02 40.62  .33352 1.3047 158.4 20.4  60d 174
2019 02 21 09  10 59 54.732   -08 02 19.46  .33361 1.3048 158.4 20.4  60d 174
2019 02 21 10  10 59 55.197   -08 01 58.24  .33369 1.3050 158.4 20.4  60d 174
2019 02 21 11  10 59 55.659   -08 01 36.98  .33377 1.3051 158.5 20.4  60d 174
2019 02 21 12  10 59 56.118   -08 01 15.67  .33386 1.3053 158.5 20.4  60d 174
2019 02 21 13  10 59 56.574   -08 00 54.32  .33394 1.3054 158.5 20.4  60d 174
2019 02 21 14  10 59 57.029   -08 00 32.91  .33402 1.3056 158.6 20.4  60d 174
2019 02 21 15  10 59 57.480   -08 00 11.46  .33411 1.3057 158.6 20.4  60d 174
2019 02 21 16  10 59 57.929   -07 59 49.97  .33419 1.3059 158.6 20.4  60d 174
2019 02 21 17  10 59 58.376   -07 59 28.42  .33428 1.3060 158.7 20.4  61d 174
2019 02 21 18  10 59 58.820   -07 59 06.83  .33436 1.3062 158.7 20.4  61d 174
2019 02 21 19  10 59 59.262   -07 58 45.19  .33444 1.3063 158.8 20.4  61d 174
2019 02 21 20  10 59 59.701   -07 58 23.51  .33453 1.3065 158.8 20.4  61d 174
2019 02 21 21  11 00 00.138   -07 58 01.78  .33461 1.3066 158.8 20.4  61d 174
2019 02 21 22  11 00 00.572   -07 57 40.00  .33470 1.3068 158.9 20.4  61d 174
2019 02 21 23  11 00 01.004   -07 57 18.18  .33478 1.3069 158.9 20.4  61d 174
2019 02 22 00  11 00 01.433   -07 56 56.31  .33487 1.3071 158.9 20.4  61d 174
2019 02 22 01  11 00 01.860   -07 56 34.40  .33496 1.3072 159.0 20.4  61d 174
2019 02 22 02  11 00 02.284   -07 56 12.44  .33504 1.3074 159.0 20.4  61d 174
2019 02 22 03  11 00 02.706   -07 55 50.43  .33513 1.3075 159.1 20.4  61d 173
2019 02 22 04  11 00 03.126   -07 55 28.38  .33521 1.3077 159.1 20.4  61d 173
2019 02 22 05  11 00 03.543   -07 55 06.28  .33530 1.3078 159.1 20.4  62d 173
2019 02 22 06  11 00 03.958   -07 54 44.13  .33539 1.3080 159.2 20.4  62d 173
2019 02 22 07  11 00 04.370   -07 54 21.94  .33547 1.3081 159.2 20.4  62d 173
2019 02 22 08  11 00 04.780   -07 53 59.71  .33556 1.3083 159.2 20.4  62d 173
2019 02 22 09  11 00 05.188   -07 53 37.43  .33565 1.3084 159.3 20.4  62d 173
2019 02 22 10  11 00 05.593   -07 53 15.10  .33574 1.3086 159.3 20.4  62d 173
2019 02 22 11  11 00 05.996   -07 52 52.73  .33582 1.3087 159.3 20.4  62d 173
2019 02 22 12  11 00 06.397   -07 52 30.32  .33591 1.3089 159.4 20.4  63d 173
2019 02 22 13  11 00 06.795   -07 52 07.86  .33600 1.3090 159.4 20.4  63d 173